New Ulm, MN

4:32 AM CST on December 14, 2019 (GMT -0600)
New Ulm Municipal

Weather History for KULM - October, 2019

Change the Weather History Date:

Wednesday, October 2, 2019

  Actual Average Record
Temperature  
Mean Temperature 48 °F -  
Max Temperature 50 °F 71 °F 89 °F (2001)
Min Temperature 46 °F 42 °F 18 °F (1974)
Degree Days  
Heating Degree Days 17    
Moisture  
Dew Point 45 °F    
Average Humidity 91    
Maximum Humidity 93    
Minimum Humidity 87    
Precipitation  
Precipitation 0.00 in - - ()
Sea Level Pressure  
Sea Level Pressure 30.03 in    
Wind  
Wind Speed 8 mph ()    
Max Wind Speed 15 mph    
Max Gust Speed 21 mph    
Visibility 7.3 miles    
Events Rain    
Averages and records for this station are not official NWS values.
T = Trace of Precipitation, MM = Missing Value Source: Averaged Metar Reports

Daily Weather History Graph

Daily Weather History Graph

Search for Another Location

Airport or City:

Astronomy

Oct. 02, 2019 Rise Set
Actual Time 7:16 AM CDT 6:57 PM CDT
Civil Twilight 6:47 AM CDT 7:26 PM CDT
Nautical Twilight 6:14 AM CDT 7:59 PM CDT
Astronomical Twilight 5:40 AM CDT 8:33 PM CDT
Moon 11:52 AM CDT (10/2) 9:42 PM CDT (10/2)
Length of Visible Light 12h 38m
Length of Day
11h 40m
Waxing Crescent, 20% of the Moon is Illuminated
Oct 2
Waxing Crescent
Oct 5
First Quarter
Oct 13
Full
Oct 21
Last Quarter
Oct 27
New

Hourly Weather History & Observations

Time (CDT) Temp. Windchill Dew Point Humidity Pressure Visibility Wind Dir Wind Speed Gust Speed Precip Events Conditions
12:15 AM 50.0 °F - 46.4 °F 87% 30.01 in 10.0 mi NNE 6.9 mph - N/A   Overcast
12:35 AM 50.0 °F - 46.4 °F 87% 30.02 in 10.0 mi NNE 6.9 mph - N/A   Overcast
12:36 AM 50.0 °F - 46.4 °F 87% 30.02 in 10.0 mi NNE 6.9 mph - N/A   Overcast
12:55 AM 50.0 °F - 46.4 °F 87% 30.02 in 10.0 mi NNE 8.1 mph - N/A   Overcast
1:15 AM 50.0 °F - 46.4 °F 87% 30.02 in 10.0 mi NNE 9.2 mph - N/A   Overcast
1:16 AM 50.0 °F - 46.4 °F 87% 30.03 in 10.0 mi NNE 8.1 mph - N/A   Overcast
1:35 AM 48.2 °F - 46.4 °F 93% 30.03 in 10.0 mi NNE 9.2 mph 16.1 mph N/A   Overcast
1:55 AM 48.2 °F - 46.4 °F 93% 30.05 in 10.0 mi North 9.2 mph - N/A   Overcast
1:56 AM 48.2 °F - 46.4 °F 93% 30.05 in 10.0 mi North 8.1 mph - N/A   Overcast
2:15 AM 48.2 °F - 44.6 °F 87% 30.05 in 10.0 mi North 8.1 mph - N/A   Overcast
2:35 AM 48.2 °F - 44.6 °F 87% 30.04 in 10.0 mi North 10.4 mph 17.3 mph N/A   Overcast
2:36 AM 48.2 °F - 44.6 °F 87% 30.04 in 10.0 mi North 10.4 mph 17.3 mph N/A   Overcast
2:55 AM 48.2 °F - 44.6 °F 87% 30.03 in 10.0 mi NNE 10.4 mph 16.1 mph N/A   Overcast
3:15 AM 48.2 °F - 44.6 °F 87% 30.03 in 10.0 mi NNE 11.5 mph 17.3 mph N/A   Overcast
3:16 AM 48.2 °F - 44.6 °F 87% 30.03 in 10.0 mi NNE 12.7 mph 17.3 mph N/A   Overcast
3:35 AM 48.2 °F - 44.6 °F 87% 30.04 in 10.0 mi NNE 10.4 mph 18.4 mph N/A   Overcast
3:55 AM 46.4 °F 41.1 °F 44.6 °F 93% 30.04 in 10.0 mi NNE 11.5 mph 18.4 mph N/A   Overcast
4:15 AM 46.4 °F 41.5 °F 44.6 °F 93% 30.04 in 10.0 mi NNE 10.4 mph - N/A   Overcast
4:16 AM 46.4 °F 40.7 °F 44.6 °F 93% 30.04 in 10.0 mi NNE 12.7 mph - N/A   Overcast
4:35 AM 46.4 °F 41.1 °F 42.8 °F 87% 30.05 in 10.0 mi NNE 11.5 mph 17.3 mph N/A   Overcast
4:36 AM 46.4 °F 41.5 °F 42.8 °F 87% 30.05 in 10.0 mi NNE 10.4 mph 17.3 mph N/A   Overcast
4:55 AM 46.4 °F 42.4 °F 42.8 °F 87% 30.05 in 10.0 mi North 8.1 mph - N/A   Overcast
5:15 AM 46.4 °F 42.4 °F 42.8 °F 87% 30.06 in 10.0 mi North 8.1 mph - N/A   Overcast
5:35 AM 46.4 °F 42.4 °F 42.8 °F 87% 30.06 in 10.0 mi North 8.1 mph - N/A   Overcast
5:36 AM 46.4 °F 42.9 °F 42.8 °F 87% 30.06 in 10.0 mi North 6.9 mph - N/A   Overcast
5:55 AM 46.4 °F 42.9 °F 42.8 °F 87% 30.07 in 10.0 mi North 6.9 mph - N/A   Overcast
6:15 AM 46.4 °F 41.1 °F 42.8 °F 87% 30.05 in 10.0 mi NNE 11.5 mph 16.1 mph N/A   Overcast
6:16 AM 46.4 °F 41.9 °F 42.8 °F 87% 30.05 in 10.0 mi NNE 9.2 mph 16.1 mph N/A   Overcast
6:35 AM 46.4 °F 41.5 °F 42.8 °F 87% 30.06 in 10.0 mi NNE 10.4 mph - N/A   Overcast
6:55 AM 46.4 °F 42.4 °F 42.8 °F 87% 30.06 in 10.0 mi NNE 8.1 mph - N/A   Overcast
7:15 AM 46.4 °F 41.9 °F 42.8 °F 87% 30.07 in 10.0 mi NNE 9.2 mph - N/A   Overcast
7:16 AM 46.4 °F 41.9 °F 42.8 °F 87% 30.07 in 10.0 mi NNE 9.2 mph - N/A   Overcast
7:35 AM 46.4 °F 41.9 °F 42.8 °F 87% 30.07 in 10.0 mi NNE 9.2 mph - N/A   Overcast
7:36 AM 46.4 °F 41.5 °F 42.8 °F 87% 30.07 in 10.0 mi NNE 10.4 mph - N/A   Overcast
7:55 AM 46.4 °F 41.9 °F 42.8 °F 87% 30.06 in 3.0 mi NE 9.2 mph - N/A   Overcast
7:56 AM 46.4 °F 41.5 °F 42.8 °F 87% 30.06 in 3.0 mi NE 10.4 mph - N/A   Overcast
8:15 AM 46.4 °F 41.9 °F 44.6 °F 93% 30.06 in 3.0 mi NE 9.2 mph 16.1 mph N/A   Overcast
8:16 AM 46.4 °F 41.1 °F 44.6 °F 93% 30.06 in 3.0 mi NE 11.5 mph 16.1 mph N/A   Overcast
8:35 AM 46.4 °F 41.9 °F 44.6 °F 93% 30.06 in 3.0 mi NNE 9.2 mph - N/A   Overcast
8:55 AM 46.4 °F 41.5 °F 44.6 °F 93% 30.05 in 3.0 mi NE 10.4 mph - N/A   Overcast
8:56 AM 46.4 °F 41.9 °F 44.6 °F 93% 30.05 in 3.0 mi NE 9.2 mph - N/A   Overcast
9:15 AM 46.4 °F 42.4 °F 44.6 °F 93% 30.06 in 7.0 mi NE 8.1 mph - N/A   Overcast
9:35 AM 46.4 °F 42.9 °F 44.6 °F 93% 30.06 in 10.0 mi NNE 6.9 mph - N/A   Overcast
9:36 AM 46.4 °F 42.9 °F 44.6 °F 93% 30.06 in 10.0 mi NNE 6.9 mph - N/A   Overcast
9:55 AM 46.4 °F 42.4 °F 44.6 °F 93% 30.06 in 10.0 mi ENE 8.1 mph - N/A   Overcast
10:35 AM 48.2 °F - 46.4 °F 93% 30.05 in 4.0 mi NE 10.4 mph - N/A   Overcast
10:36 AM 48.2 °F - 46.4 °F 93% 30.05 in 4.0 mi NE 10.4 mph - N/A   Overcast
10:55 AM 48.2 °F - 46.4 °F 93% 30.04 in 4.0 mi NE 10.4 mph - N/A   Overcast
10:56 AM 48.2 °F - 46.4 °F 93% 30.05 in 4.0 mi NE 9.2 mph - N/A   Overcast
11:15 AM 48.2 °F - 46.4 °F 93% 30.07 in 4.0 mi NE 6.9 mph - N/A   Overcast
11:16 AM 48.2 °F - 46.4 °F 93% 30.07 in 4.0 mi NE 6.9 mph - N/A   Overcast
11:35 AM 48.2 °F - 46.4 °F 93% 30.08 in 3.0 mi North 5.8 mph - N/A Rain Rain
11:36 AM 48.2 °F - 46.4 °F 93% 30.08 in 4.0 mi North 4.6 mph - N/A Rain Rain
11:55 AM 48.2 °F - 46.4 °F 93% 30.05 in 5.0 mi NNE 9.2 mph - N/A Rain Rain
12:15 PM 48.2 °F - 46.4 °F 93% 30.08 in 5.0 mi North 4.6 mph - N/A Rain Rain
12:35 PM 48.2 °F - 46.4 °F 93% 30.05 in 10.0 mi NE 9.2 mph - N/A Rain Rain
12:55 PM 48.2 °F - 46.4 °F 93% 30.05 in 10.0 mi NNE 12.7 mph 17.3 mph N/A Rain Rain
12:56 PM 48.2 °F - 46.4 °F 93% 30.05 in 10.0 mi NE 12.7 mph 17.3 mph N/A Rain Rain
1:15 PM 48.2 °F - 46.4 °F 93% 30.05 in 10.0 mi NE 11.5 mph - N/A Rain Light Rain
1:35 PM 48.2 °F - 46.4 °F 93% 30.04 in 10.0 mi NNE 10.4 mph 16.1 mph N/A Rain Light Rain
1:55 PM 48.2 °F - 46.4 °F 93% 30.03 in 10.0 mi NE 12.7 mph - N/A Rain Light Rain
2:15 PM 48.2 °F - 46.4 °F 93% 30.04 in 10.0 mi NE 9.2 mph 16.1 mph N/A Rain Light Rain
2:16 PM 48.2 °F - 46.4 °F 93% 30.04 in 10.0 mi NE 9.2 mph 16.1 mph N/A Rain Light Rain
2:35 PM 48.2 °F - 46.4 °F 93% 30.02 in 10.0 mi NE 10.4 mph - N/A Rain Light Rain
2:55 PM 48.2 °F - 46.4 °F 93% 30.00 in 10.0 mi NE 15.0 mph 19.6 mph N/A Rain Light Rain
3:15 PM 48.2 °F - 46.4 °F 93% 29.99 in 10.0 mi ENE 10.4 mph 18.4 mph N/A Rain Light Rain
3:35 PM 48.2 °F - 46.4 °F 93% 29.99 in 10.0 mi East 11.5 mph 17.3 mph N/A Rain Light Rain
3:55 PM 48.2 °F - 46.4 °F 93% 29.99 in 10.0 mi East 9.2 mph - N/A Rain Light Rain
4:15 PM 48.2 °F - 46.4 °F 93% 29.97 in 10.0 mi East 13.8 mph 18.4 mph N/A   Light Drizzle
4:16 PM 48.2 °F - 46.4 °F 93% 29.97 in 10.0 mi East 12.7 mph 18.4 mph N/A   Light Drizzle
4:35 PM 48.2 °F - 46.4 °F 93% 29.97 in 10.0 mi ENE 11.5 mph 20.7 mph N/A   Light Drizzle
4:36 PM 48.2 °F - 46.4 °F 93% 29.97 in 10.0 mi ENE 11.5 mph 18.4 mph N/A   Overcast
4:55 PM 48.2 °F - 46.4 °F 93% 29.98 in 10.0 mi ENE 4.6 mph 16.1 mph N/A   Light Drizzle
5:15 PM 48.2 °F - 46.4 °F 93% 29.99 in 10.0 mi ENE 4.6 mph - N/A Rain Light Rain
5:16 PM 48.2 °F - 46.4 °F 93% 29.99 in 10.0 mi East 6.9 mph - N/A Rain Light Rain
5:35 PM 48.2 °F - 46.4 °F 93% 29.99 in 10.0 mi ENE 6.9 mph - N/A Rain Light Rain
5:55 PM 48.2 °F - 46.4 °F 93% 29.99 in 5.0 mi ENE 8.1 mph - N/A   Drizzle
5:56 PM 48.2 °F - 46.4 °F 93% 29.99 in 5.0 mi ENE 6.9 mph - N/A   Drizzle
6:15 PM 48.2 °F - 46.4 °F 93% 29.99 in 4.0 mi ENE 5.8 mph - N/A   Light Drizzle
6:16 PM 48.2 °F - 46.4 °F 93% 29.99 in 4.0 mi East 5.8 mph - N/A   Light Drizzle
6:35 PM 48.2 °F - 46.4 °F 93% 29.98 in 3.0 mi ENE 4.6 mph - N/A Rain Light Rain
6:36 PM 48.2 °F - 46.4 °F 93% 29.98 in 3.0 mi ENE 5.8 mph - N/A Rain Light Rain
6:55 PM 48.2 °F - 46.4 °F 93% 29.99 in 3.0 mi NE 5.8 mph - N/A   Light Drizzle
7:15 PM 48.2 °F - 46.4 °F 93% 29.99 in 4.0 mi NE 5.8 mph - N/A   Drizzle
7:35 PM 48.2 °F - 46.4 °F 93% 29.98 in 4.0 mi ENE 4.6 mph - N/A   Drizzle
7:36 PM 48.2 °F - 46.4 °F 93% 29.98 in 4.0 mi ENE 4.6 mph - N/A   Drizzle
7:55 PM 48.2 °F - 46.4 °F 93% 29.98 in 3.0 mi ENE 4.6 mph - N/A   Light Drizzle
8:15 PM 48.2 °F - 46.4 °F 93% 29.98 in 4.0 mi ENE 4.6 mph - N/A Rain Light Rain
8:16 PM 48.2 °F - 46.4 °F 93% 29.98 in 4.0 mi ENE 5.8 mph - N/A Rain Light Rain
8:35 PM 48.2 °F - 46.4 °F 93% 29.99 in 4.0 mi NE 4.6 mph - N/A Rain Rain
8:55 PM 48.2 °F - 46.4 °F 93% 30.00 in 4.0 mi NE 5.8 mph - N/A   Heavy Drizzle
8:56 PM 48.2 °F - 46.4 °F 93% 30.00 in 4.0 mi ENE 5.8 mph - N/A   Heavy Drizzle
9:15 PM 48.2 °F - 46.4 °F 93% 30.00 in 4.0 mi Calm Calm - N/A   Drizzle
9:35 PM 48.2 °F - 46.4 °F 93% 30.01 in 5.0 mi North 3.5 mph - N/A Rain Light Rain
9:55 PM 48.2 °F - 46.4 °F 93% 30.01 in 3.0 mi NNW 3.5 mph - N/A   Heavy Drizzle
10:15 PM 48.2 °F - 46.4 °F 93% 30.01 in 4.0 mi Calm Calm - N/A   Drizzle
10:16 PM 48.2 °F - 46.4 °F 93% 30.01 in 4.0 mi Calm Calm - N/A   Drizzle
10:35 PM 48.2 °F - 46.4 °F 93% 30.00 in 7.0 mi Calm Calm - N/A Rain Light Rain
10:36 PM 48.2 °F - 46.4 °F 93% 30.00 in 7.0 mi Calm Calm - N/A Rain Light Rain
10:55 PM 48.2 °F - 46.4 °F 93% 30.01 in 3.0 mi NNW 4.6 mph - N/A   Overcast
11:15 PM 48.2 °F - 46.4 °F 93% 30.00 in 3.0 mi North 3.5 mph - N/A   Overcast
11:35 PM 48.2 °F - 46.4 °F 93% 30.00 in 4.0 mi North 3.5 mph - N/A   Overcast
11:36 PM 48.2 °F - 46.4 °F 93% 30.00 in 4.0 mi North 3.5 mph - N/A   Overcast
11:55 PM 48.2 °F - 46.4 °F 93% 30.00 in 5.0 mi NNW 3.5 mph - N/A   Overcast